This is the latest recevied weather packets stored in our database for station/object K7OWW-2. If no packets are shown the sender has not sent any weather packets the latest 10 day(s).
| Time | Temp. | Humidity | Pressure | Rain* | Wind** | Luminosity | Snow |
|---|---|---|---|---|---|---|---|
| 1788400127 | 8.33° C | 97% | 1011 hPa | 1.27 mm | - | - | - |
| 1788399829 | 8.33° C | 97% | 1011 hPa | 1.27 mm | - | - | - |
| 1788399527 | 8.33° C | 97% | 1011 hPa | 1.02 mm | - | - | - |
| 1788398927 | 8.33° C | 97% | 1011 hPa | 1.27 mm | - | - | - |
| 1788398327 | 8.33° C | 97% | 1010.7 hPa | 1.78 mm | - | - | - |
| 1788398029 | 8.33° C | 97% | 1010.7 hPa | 2.03 mm | - | - | - |
| 1788397727 | 8.33° C | 96% | 1010.7 hPa | 2.03 mm | - | - | - |
| 1788397127 | 8.33° C | 96% | 1010.7 hPa | 2.03 mm | - | - | - |
| 1788396527 | 8.89° C | 95% | 1010.8 hPa | 2.03 mm | - | - | - |
| 1788396229 | 8.89° C | 95% | 1010.7 hPa | 2.29 mm | - | - | - |
| 1788395927 | 8.89° C | 96% | 1010.6 hPa | 2.54 mm | - | - | - |
| 1788395327 | 8.89° C | 96% | 1010.9 hPa | 2.03 mm | - | - | - |
| 1788394727 | 8.89° C | 95% | 1010.4 hPa | 1.52 mm | - | - | - |
| 1788394430 | 9.44° C | 96% | 1010.3 hPa | 1.52 mm | - | - | - |
| 1788394127 | 8.89° C | 95% | 1010.2 hPa | 1.52 mm | - | - | - |
| 1788393527 | 9.44° C | 95% | 1010 hPa | 1.52 mm | - | - | - |
| 1788392927 | 9.44° C | 95% | 1010 hPa | 1.78 mm | - | - | - |
| 1788392630 | 9.44° C | 95% | 1010.1 hPa | 1.78 mm | - | - | - |
| 1788392327 | 9.44° C | 95% | 1010 hPa | 1.78 mm | - | - | - |
| 1788391727 | 9.44° C | 96% | 1010 hPa | 2.29 mm | - | - | - |
| 1788391128 | 9.44° C | 95% | 1010 hPa | 2.29 mm | - | - | - |
| 1788390830 | 9.44° C | 96% | 1010 hPa | 2.29 mm | - | - | - |
| 1788390528 | 9.44° C | 96% | 1010 hPa | 2.54 mm | - | - | - |
| 1788389928 | 8.89° C | 96% | 1010.2 hPa | 2.79 mm | - | - | - |
| 1788389328 | 8.89° C | 95% | 1010.2 hPa | 2.79 mm | - | - | - |
* Rain latest hour (hover to see other rain measurements)
** Current wind speed in m/s (hover to see current wind gust speed)